This is the latest recevied weather packets stored in our database for station/object K6LCM-13. If no packets are shown the sender has not sent any weather packets the latest 10 day(s).
| Time | Temp. | Humidity | Pressure | Rain* | Wind** | Luminosity | Snow |
|---|---|---|---|---|---|---|---|
| 1777786128 | 13.89° C | 89% | 1012.3 hPa | 0 mm | - | - | - |
| 1777785048 | 14.44° C | 87% | 1012.1 hPa | 0 mm | - | - | - |
| 1777784509 | 14.44° C | 88% | 1012.2 hPa | 0 mm | - | - | - |
| 1777783967 | 14.44° C | 88% | 1012.1 hPa | 0 mm | - | - | - |
| 1777783427 | 14.44° C | 88% | 1012 hPa | 0 mm | - | - | - |
| 1777782349 | 14.44° C | 89% | 1011.6 hPa | 0 mm | - | - | - |
| 1777781807 | 14.44° C | 89% | 1011.5 hPa | 0 mm | - | - | - |
| 1777781268 | 14.44° C | 89% | 1011.6 hPa | 0 mm | - | - | - |
| 1777779108 | 14.44° C | 90% | 1011 hPa | 0 mm | - | - | - |
| 1777776442 | 14.44° C | 89% | 1010.6 hPa | 0 mm | - | - | - |
| 1777776407 | 14.44° C | 89% | 1010.6 hPa | 0 mm | - | - | - |
| 1777775872 | 14.44° C | 88% | 1010.4 hPa | 0 mm | - | - | - |
| 1777773503 | 15.56° C | 87% | 1010.4 hPa | 0 mm | - | - | - |
| 1777772422 | 16.11° C | 88% | 1010.6 hPa | 0 mm | - | - | - |
| 1777771882 | 16.11° C | 87% | 1010.6 hPa | 0 mm | - | - | - |
| 1777771342 | 16.11° C | 88% | 1010.7 hPa | 0 mm | - | - | - |
| 1777770802 | 16.11° C | 87% | 1010.8 hPa | 0 mm | - | - | - |
| 1777770262 | 16.11° C | 86% | 1010.8 hPa | 0 mm | - | - | - |
| 1777769723 | 16.11° C | 87% | 1010.9 hPa | 0 mm | - | - | - |
| 1777769182 | 16.11° C | 85% | 1010.9 hPa | 0 mm | - | - | - |
| 1777767974 | 16.67° C | 85% | 1010.9 hPa | 0 mm | - | - | - |
| 1777767433 | 16.67° C | 85% | 1011 hPa | 0 mm | - | - | - |
| 1777766353 | 17.22° C | 83% | 1011 hPa | 0 mm | - | - | - |
| 1777765814 | 16.67° C | 84% | 1011 hPa | 0 mm | - | - | - |
| 1777765274 | 16.67° C | 84% | 1011 hPa | 0 mm | - | - | - |
* Rain latest hour (hover to see other rain measurements)
** Current wind speed in m/s (hover to see current wind gust speed)